Change the Weather History Date:

Friday, June 28, 2013

  Actual Average (PAKK) Record (PAKK)
Temperature  
Mean Temperature 48 °F -  
Max Temperature 51 °F 59 °F 82 °F (2004)
Min Temperature 46 °F 46 °F 37 °F (2000)
Degree Days  
Heating Degree Days 16    
Moisture  
Dew Point 47 °F    
Average Humidity 96    
Maximum Humidity 100    
Minimum Humidity 88    
Precipitation  
Precipitation 0.07 in - - ()
Sea Level Pressure  
Sea Level Pressure 30.07 in    
Wind  
Wind Speed 6 mph (SSW)    
Max Wind Speed 8 mph    
Max Gust Speed -    
Visibility 7 miles    
Events Fog , Rain    
Averages and records for this station are not official NWS values.
T = Trace of Precipitation, MM = Missing Value Source: NWS Daily Summary

Daily Weather History Graph

Daily Weather History Graph

Search for Another Location

Airport or City:

Trip Planner

Search our weather history database for the weather conditions in past years. The results will help you decide how hot, cold, wet, or windy it might be!

Date:

Astronomy

Jun. 28, 2013 Rise Set
Actual Time 4:12 AM AKDT 1:39 AM AKDT
Civil Twilight Sun does not rise Sun does not rise
Nautical Twilight Sun does not rise Sun does not rise
Astronomical Twilight Sun does not rise Sun does not rise
Moon 1:41 AM AKDT (6/28) 1:50 PM AKDT (6/28)
Length of Visible Light 24h 00m
Length of Day
21h 26m
Waning Gibbous, 65% of the Moon is Illuminated
Jun 28
Waning Gibbous
Jun 29
Last Quarter
Jul 7
New
Jul 15
First Quarter
Jul 22
Full

Hourly Weather History & Observations

Time (AKDT) Temp. Windchill Dew Point Humidity Pressure Visibility Wind Dir Wind Speed Gust Speed Precip Events Conditions
12:30 AM 46.4 °F 43.5 °F 46.4 °F 100% 30.04 in 4.0 mi South 5.8 mph - 0.00 in Rain Light Rain
12:58 AM 46.0 °F 43.1 °F 46.0 °F 100% 30.09 in 3.0 mi SSW 5.8 mph - 0.00 in   Overcast
1:07 AM 46.4 °F 42.4 °F 46.4 °F 100% 30.05 in 2.5 mi South 8.1 mph - N/A   Overcast
1:19 AM 46.4 °F 42.9 °F 46.4 °F 100% 30.05 in 1.5 mi SSW 6.9 mph - N/A   Overcast
1:38 AM 46.4 °F 42.9 °F 46.4 °F 100% 30.05 in 0.8 mi SSW 6.9 mph - 0.00 in Rain Light Rain
1:43 AM 46.4 °F 43.5 °F 46.4 °F 100% 30.06 in 0.2 mi SW 5.8 mph - 0.00 in Fog , Rain Light Rain
1:58 AM 46.0 °F 42.5 °F 46.0 °F 100% 30.09 in 0.2 mi SSW 6.9 mph - 0.00 in Fog , Rain Light Rain
2:17 AM 46.4 °F 43.5 °F 46.4 °F 100% 30.05 in 0.5 mi SSW 5.8 mph - 0.00 in Fog , Rain Light Rain
2:29 AM 46.4 °F 42.4 °F 46.4 °F 100% 30.06 in 1.0 mi SSW 8.1 mph - 0.00 in Rain Light Rain
2:36 AM 46.4 °F 42.9 °F 46.4 °F 100% 30.06 in 1.8 mi SSW 6.9 mph - 0.00 in Rain Light Rain
2:42 AM 46.4 °F 43.5 °F 46.4 °F 100% 30.06 in 2.5 mi SSW 5.8 mph - 0.00 in Rain Light Rain
2:58 AM 46.0 °F 43.1 °F 46.0 °F 100% 30.09 in 5.0 mi SSW 5.8 mph - 0.00 in Rain Light Rain
3:58 AM 46.0 °F 42.5 °F 46.0 °F 100% 30.09 in 7.0 mi SSW 6.9 mph - 0.00 in Rain Light Rain
4:03 AM 46.4 °F 43.5 °F 46.4 °F 100% 30.06 in 9.0 mi SSW 5.8 mph - 0.00 in Rain Light Rain
4:58 AM 46.0 °F 43.1 °F 45.0 °F 96% 30.10 in 10.0 mi SSW 5.8 mph - 0.00 in   Overcast
5:10 AM 46.4 °F 44.3 °F 44.6 °F 93% 30.06 in 9.0 mi SSW 4.6 mph - 0.00 in Rain Light Rain
5:29 AM 46.4 °F 44.3 °F 46.4 °F 100% 30.06 in 9.0 mi SW 4.6 mph - 0.00 in Rain Light Rain
5:48 AM 46.4 °F 45.2 °F 46.4 °F 100% 30.06 in 2.0 mi SW 3.5 mph - 0.00 in Rain Light Rain
5:58 AM 46.0 °F 44.8 °F 46.0 °F 100% 30.10 in 3.0 mi SSW 3.5 mph - 0.01 in Rain Light Rain
6:58 AM 46.0 °F 43.9 °F 46.0 °F 100% 30.10 in 9.0 mi SW 4.6 mph - 0.00 in Rain Light Rain
7:02 AM 46.4 °F 44.3 °F 46.4 °F 100% 30.06 in 8.0 mi SSW 4.6 mph - 0.00 in Rain Light Rain
7:58 AM 46.9 °F - 46.0 °F 97% 30.10 in 5.0 mi SSW 3.5 mph - 0.01 in Rain Light Rain
8:03 AM 46.4 °F 45.2 °F 46.4 °F 100% 30.06 in 5.0 mi SSW 3.5 mph - 0.00 in Rain Light Rain
8:48 AM 46.4 °F 42.9 °F 46.4 °F 100% 30.06 in 10.0 mi SSW 6.9 mph - 0.00 in Rain Light Rain
8:56 AM 46.4 °F 43.5 °F 46.4 °F 100% 30.06 in 9.0 mi SW 5.8 mph - 0.00 in Rain Light Rain
8:58 AM 46.9 °F - 46.9 °F 100% 30.10 in 9.0 mi SW 5.8 mph - 0.00 in Rain Light Rain
9:58 AM 46.9 °F - 46.9 °F 100% 30.11 in 7.0 mi SSW 6.9 mph - 0.00 in   Overcast
10:15 AM 46.4 °F 43.5 °F 46.4 °F 100% 30.07 in 2.5 mi SW 5.8 mph - 0.00 in Rain Light Rain
10:33 AM 46.4 °F 42.9 °F 46.4 °F 100% 30.07 in 4.0 mi SW 6.9 mph - 0.00 in Rain Light Rain
10:58 AM 48.0 °F - 46.9 °F 96% 30.11 in 10.0 mi SSW 4.6 mph - 0.00 in   Overcast
11:16 AM 48.2 °F - 46.4 °F 93% 30.07 in 9.0 mi SSW 4.6 mph - N/A   Overcast
11:58 AM 48.9 °F - 46.9 °F 93% 30.11 in 9.0 mi SSW 5.8 mph - N/A   Overcast
12:27 PM 48.2 °F - 46.4 °F 93% 30.07 in 10.0 mi South 4.6 mph - N/A   Overcast
12:58 PM 48.9 °F - 46.9 °F 93% 30.11 in 9.0 mi South 4.6 mph - 0.00 in Rain Light Rain
1:58 PM 50.0 °F - 46.9 °F 89% 30.11 in 10.0 mi South 6.9 mph - 0.00 in Rain Light Rain
2:58 PM 50.0 °F - 48.0 °F 93% 30.12 in 10.0 mi SSW 5.8 mph - 0.00 in Rain Light Rain
3:58 PM 50.0 °F - 48.0 °F 93% 30.11 in 8.0 mi SSW 6.9 mph - 0.01 in Rain Light Rain
4:58 PM 50.0 °F - 48.0 °F 93% 30.10 in 6.0 mi SSW 5.8 mph - 0.01 in Rain Light Rain
5:58 PM 50.0 °F - 48.0 °F 93% 30.09 in 10.0 mi SSW 5.8 mph - 0.00 in Rain Light Rain
6:22 PM 51.8 °F - 48.2 °F 88% 30.05 in 10.0 mi South 5.8 mph - 0.00 in Rain Light Rain
6:33 PM 51.8 °F - 48.2 °F 88% 30.05 in 10.0 mi SSW 4.6 mph - 0.00 in Rain Light Rain
6:37 PM 51.8 °F - 48.2 °F 88% 30.05 in 10.0 mi SSW 6.9 mph - 0.00 in Rain Light Rain
6:48 PM 51.8 °F - 48.2 °F 88% 30.05 in 8.0 mi SSW 5.8 mph - 0.01 in Rain Light Rain
6:53 PM 51.8 °F - 48.2 °F 88% 30.05 in 7.0 mi SSW 6.9 mph - 0.01 in Rain Light Rain
6:58 PM 51.1 °F - 48.9 °F 92% 30.09 in 7.0 mi SSW 4.6 mph - 0.01 in Rain Light Rain
7:31 PM 50.0 °F - 48.2 °F 94% 30.05 in 10.0 mi SSW 6.9 mph - 0.01 in Rain Light Rain
7:40 PM 50.0 °F - 48.2 °F 94% 30.05 in 10.0 mi South 5.8 mph - 0.01 in Rain Light Rain
7:49 PM 50.0 °F - 48.2 °F 94% 30.05 in 7.0 mi SSW 5.8 mph - 0.01 in Rain Light Rain
7:56 PM 50.0 °F - 48.2 °F 94% 30.05 in 6.0 mi SSW 5.8 mph - 0.01 in Rain Light Rain
7:58 PM 50.0 °F - 48.9 °F 96% 30.09 in 7.0 mi SSW 6.9 mph - 0.01 in Rain Light Rain
8:03 PM 50.0 °F - 48.2 °F 94% 30.04 in 7.0 mi SSW 6.9 mph - 0.00 in Rain Light Rain
8:07 PM 50.0 °F - 48.2 °F 94% 30.04 in 7.0 mi SSW 5.8 mph - 0.00 in Rain Light Rain
8:19 PM 50.0 °F - 48.2 °F 94% 30.04 in 7.0 mi SSW 4.6 mph - 0.01 in Rain Light Rain
8:23 PM 50.0 °F - 48.2 °F 94% 30.04 in 6.0 mi SSW 4.6 mph - 0.01 in Rain Light Rain
8:29 PM 50.0 °F - 48.2 °F 94% 30.04 in 6.0 mi SSW 4.6 mph - 0.01 in Rain Light Rain
8:42 PM 50.0 °F - 48.2 °F 94% 30.04 in 10.0 mi SSW 3.5 mph - 0.01 in Rain Light Rain
8:58 PM 50.0 °F - 48.0 °F 93% 30.07 in 9.0 mi Calm Calm - 0.01 in   Mostly Cloudy
9:25 PM 50.0 °F - 48.2 °F 94% 30.03 in 10.0 mi Calm Calm - N/A   Scattered Clouds
9:32 PM 50.0 °F - 48.2 °F 94% 30.03 in 10.0 mi West 3.5 mph - N/A   Mostly Cloudy
9:37 PM 50.0 °F - 48.2 °F 94% 30.03 in 10.0 mi Calm Calm - N/A   Mostly Cloudy
9:58 PM 50.0 °F - 48.0 °F 93% 30.07 in 10.0 mi SSW 3.5 mph - N/A   Mostly Cloudy
10:58 PM 50.0 °F - 48.0 °F 93% 30.06 in 10.0 mi Calm Calm - N/A   Mostly Cloudy
11:58 PM 48.9 °F - 48.0 °F 97% 30.04 in 10.0 mi North 4.6 mph - N/A   Mostly Cloudy